Location: Ladd Observatory
(41.8387°N, 71.3996°W)
Time: 12:27:07
(UTC-05:00)

Daily predictions for brighter satellites

Satellite Brightness Start Highest point End
(mag) Time Altitude Azimuth Time Altitude Azimuth Time Altitude Azimuth
USA 215 4.1 17:11:31 10° E 17:17:13 33° NNE 17:22:55 10° NW
SJ-12 4.5 17:17:22 10° S 17:21:27 65° W 17:25:34 10° NNW
Aureole 2 Rocket 2.8 17:18:05 10° SSW 17:21:54 90° ESE 17:26:02 10° NNE
Cosmos 2297 3.8 17:16:18 10° NNW 17:21:56 57° ENE 17:27:34 10° SE
Cosmos 1634 Rocket 4.2 17:16:47 10° N 17:22:59 81° W 17:29:08 10° S
IDEFIX/ARIANE 42P 3.0 17:18:45 10° S 17:23:56 69° WSW 17:29:12 10° NNW
USA 116 3.4 17:21:32 10° N 17:24:39 72° WNW 17:27:44 10° SSW
ALOS 4.0 17:23:16 10° E 17:24:54 12° ENE 17:26:31 10° NE
Cosmos 2151 3.0 17:22:19 10° S 17:26:31 89° WNW 17:30:45 10° N
SL-14 R/B 3.4 17:23:39 10° S 17:27:36 84° W 17:31:38 10° N
Cosmos 1484 Rocket 2.9 17:25:11 10° SSE 17:29:02 54° ENE 17:32:58 10° N
Meteor 1-28 Rocket 4.2 17:27:24 10° NE 17:30:35 26° E 17:33:47 10° SSE
CZ-2C R/B 3.2 17:27:08 10° S 17:31:59 57° W 17:36:42 10° NNW
Abrixas 3.5 17:29:35 10° W 17:32:18 34° NNW 17:34:57 11° NE
Cosmos 1707 Rocket 4.0 17:29:28 10° N 17:33:33 38° ENE 17:37:36 10° SSE
Cosmos 1340 Rocket 2.7 17:30:08 10° S 17:34:02 69° E 17:37:56 10° NNE
YAOGAN 1 3.0 17:30:55 10° S 17:35:12 67° WSW 17:39:33 10° NNW
COSMO-SKYMED 1 2.8 17:32:53 10° NNE 17:37:07 50° E 17:41:20 10° S
COSMOS 2441 4.4 17:34:16 10° SSE 17:39:08 87° W 17:43:59 10° NNW
SMAP 4.0 17:34:58 10° S 17:39:29 53° W 17:44:04 10° NNW
Cosmos 1666 Rocket 3.9 17:40:22 10° SSE 17:44:27 42° E 17:48:36 10° NNE
CENTAUR R/B 4.3 17:40:23 10° W 17:45:32 25° NNW 17:51:14 10° NNE
ATLAS 5 CENTAUR R/B 4.1 17:42:52 10° N 17:45:34 13° NNE 17:47:55 11° NE
Cosmos 1869 4.3 17:44:35 10° NNE 17:48:01 26° ENE 17:51:25 10° SE
Lacrosse 4 Rocket 1.8 17:47:30 10° NNW 17:51:17 36° NE 17:55:03 10° SE
Cosmos 1626 2.1 17:50:47 10° S 17:54:27 62° E 17:58:10 10° NNE
USA 229 DEB 3.9 17:51:39 10° SSW 17:58:15 54° ESE 18:04:29 12° NE
USA 229 3.9 17:51:46 10° SSW 17:58:21 53° ESE 18:04:33 12° NE
Resurs 01 Rocket 2.8 17:57:36 10° ESE 18:01:02 22° ENE 18:04:28 10° NNE
Cosmos 1943 Rocket 4.0 18:01:25 10° NNE 18:02:59 12° NE 18:02:59 12° NE
Cosmos 2219 Rocket 4.3 17:59:42 10° WSW 18:04:04 23° NW 18:08:27 10° N
Blok-2BL 4.2 18:01:42 10° NNW 18:04:33 26° NE 18:04:49 26° NE
Cosmos 2058 4.2 18:01:23 10° SSW 18:05:15 41° WNW 18:09:09 10° N
Cosmos 1184 Rocket 2.7 18:03:03 10° S 18:06:22 64° E 18:09:37 10° NNE
CZ-4C R/B 4.3 18:04:54 10° NNW 18:09:00 16° NNE 18:11:11 14° NE
Iridium 4 Rocket 3.4 18:06:25 10° SSE 18:10:30 39° E 18:14:26 10° NNE
Spot 2 Rocket 4.1 18:08:19 10° SE 18:12:42 31° ENE 18:17:07 10° N
Cosmos 1603 3.9 18:08:12 10° S 18:13:31 47° ESE 18:17:31 17° NE
Cosmos 2333 Rocket 4.2 18:10:27 10° WSW 18:14:56 24° NW 18:19:26 10° N
Cosmos 1461 4.1 18:11:53 10° WSW 18:15:47 37° NW 18:19:26 11° NNE
FREGAT/IRIS 2.7 18:13:02 10° SSE 18:15:58 49° ENE 18:18:57 10° N
Aureole 1 Rocket 3.9 18:10:51 10° S 18:16:20 73° ESE 18:23:37 10° NNE
Lacrosse 5 rocket 4.3 18:14:32 10° W 18:16:46 15° WSW 18:19:04 10° SSW
Cosmos 1470 Rocket 3.9 18:13:35 10° SSE 18:17:37 39° E 18:19:51 22° NE
DMSP B5D1-3 4.5 18:12:46 10° NNE 18:17:53 87° WNW 18:22:59 10° SSW
Cosmos 1242 Rocket 2.7 18:16:19 10° N 18:19:41 43° ENE 18:23:01 10° SSE
Cosmos 1455 2.3 18:17:21 10° N 18:21:09 76° W 18:24:59 10° S
FengYun 1-2 T 4.4 18:17:04 10° SE 18:22:19 45° ENE 18:27:33 10° N
Tiangong 1 2.2 18:20:04 10° SW 18:22:40 28° SSE 18:22:42 28° SSE
Cosmos 1356 Rocket 4.0 18:20:33 10° SSW 18:24:28 56° WNW 18:28:25 10° N
Nadezhda 4 Rocket 4.0 18:21:13 10° S 18:27:29 84° W 18:33:51 10° N
Cosmos 2242 Rocket 3.5 18:25:33 10° N 18:30:00 83° E 18:34:28 10° S
Cosmos 2026 Rocket 4.2 18:25:23 10° SSE 18:31:09 42° E 18:36:51 10° NNE
Sich 1 3.7 18:28:54 10° SSW 18:33:16 58° W 18:37:39 10° N
Coronas F rocket 2.6 18:35:49 10° SSW 18:37:55 35° W 18:37:55 35° W
Cosmos 923 Rocket 3.9 18:34:08 10° SSW 18:39:20 83° ESE 18:42:58 20° NNE
SJ-6B 3.2 18:39:50 10° S 18:43:53 67° WSW 18:48:03 10° NNW
Cosmos 1633 Rocket 4.0 18:40:51 10° SSW 18:45:06 48° W 18:49:23 10° N
Cosmos 1680 Rocket 3.4 18:40:10 10° S 18:45:21 72° ESE 18:47:47 32° NNE
Cosmos 972 Rocket 4.3 18:40:37 10° N 18:45:47 50° ENE 18:47:26 39° ESE
Cosmos 2369 Rocket 2.4 18:41:26 10° NNW 18:46:51 44° ENE 18:47:04 44° ENE
NOSS 3-1 (C) 3.6 18:43:54 10° S 18:49:19 45° ESE 18:50:00 44° E
Cosmos 1092 Rocket 4.1 18:44:33 10° SSW 18:50:54 78° W 18:57:16 10° N
SL-16 R/B 3.8 18:47:43 10° WSW 18:52:46 33° WNW 18:57:51 10° N
Cosmos 1553 Rocket 4.4 18:49:49 10° N 18:54:36 40° NE 18:54:36 40° NE
Lacrosse 5 3.6 18:53:19 10° NNW 18:56:21 19° N 18:56:21 19° N
Cosmos 1867 4.3 18:52:11 10° NNW 18:56:26 37° NNE 18:56:26 37° NNE
USA 215 3.1 18:56:43 36° ESE 18:59:40 81° NE 19:06:15 10° NW
ATLAS 3B R/B 4.3 18:56:04 10° NNW 19:00:18 17° NNE 19:00:18 17° NNE
ALOS 2.2 18:56:59 10° S 19:01:39 81° WSW 19:06:21 10° NNW
Cosmos 1862 Rocket 3.8 19:04:35 10° NNW 19:08:57 65° W 19:13:14 10° S
FENGYUN 3A 3.8 19:06:02 10° S 19:11:22 73° WSW 19:16:46 10° NNW
BREEZE-M DEB (TANK) 4.4 19:07:38 10° SSW 19:12:26 52° SE 19:15:09 43° E
Cosmos 292 Rocket 4.5 19:08:03 10° SW 19:12:40 51° WNW 19:14:24 34° N
Cosmos 2195 Rocket 4.5 19:06:59 10° S 19:13:05 79° W 19:19:17 10° N
Cosmos 2112 Rocket 4.3 19:17:05 10° SSW 19:22:14 63° WNW 19:23:17 51° NNW
Meteor 2-20 Rocket 4.3 19:16:10 10° S 19:22:00 76° SE 19:22:00 76° SE
Cosmos 1943 3.3 19:23:44 10° SSW 19:28:35 67° SSW 19:28:35 67° SSW
Lacrosse 4 Rocket 3.9 19:26:50 10° WNW 19:29:43 19° WSW 19:32:35 10° SSW
ATLAS 5 CENTAUR R/B 3.4 19:26:03 10° NNW 19:29:30 32° N 19:29:30 32° N
Resurs 01 Rocket 3.1 19:34:51 20° SSW 19:37:18 36° W 19:41:24 10° NNW
H-2A ROCKET BODY 4.0 19:32:12 10° WSW 19:44:00 27° SSW 19:45:25 25° S
Cosmos 1943 Rocket 4.0 19:42:41 10° NNW 19:44:33 21° NNW 19:44:33 21° NNW
CZ-4C R/B 3.9 19:52:30 10° NNW 19:56:23 33° N 19:56:23 33° N
NOSS 3-1 (A) 4.5 19:56:49 10° SW 20:00:05 36° SW 20:00:05 36° SW
Cosmos 2369 Rocket 4.2 20:25:58 10° NW 20:28:57 23° WNW 20:28:57 23° WNW
